Flag for Micronesia Weather past 2 weeks in Colonia, Yap, Micronesia

Now
79 °F

Partly cloudy.


Feels Like: 83 °F
Forecast: 78 / 90 °F
Wind: 6 mph from North

Location: Yap Island


UV Index: 7 (High)

Visibility: 12 mi


Pressure: 29.78 "Hg

Humidity: 90%

Dew point: 76 °F

Location of ColoniaLocation

Historic Weather in Colonia

°F

Colonia temperature yesterday

Maximum temperature yesterday: 86 °F (at 4:52 PM)
Minimum temperature yesterday: 77 °F (at 1:50 AM)
Average temperature yesterday: 80 °F

Past Weeks' High & Low Weather Summary

 TemperatureHumidityPressure
High96 °F (Apr 18, 12:51 PM)94% (Apr 13, 5:52 AM)29.87 "Hg (Apr 13, 5:52 AM)
Low75 °F (Apr 11, 12:50 PM)54% (Apr 18, 12:51 PM)29.68 "Hg (Apr 20, 3:50 PM)
Average82 °F83%29.79 "Hg
* Reported Apr 5 10:51 PM — Apr 20 10:50 PM, Colonia, Weather by CustomWeather, © 2014

Note: Actual official high and low records may vary slightly from our data, if they occured in-between our weather recording intervals... More about our weather records

Advertising

Historic Weather Conditions — Data for Previous 24 hours

 ConditionsComfort  
Time TempWeatherWind HumidityBarometerVisibility
10:50 PM
Apr 20
80 °FSprinkles. Partly cloudy.8 mph91%29.79 "Hg11 mi
9:50 PM79 °FPartly cloudy.5 mph84%29.78 "Hg12 mi
8:52 PM79 °FPartly cloudy.6 mph86%29.76 "Hg12 mi
7:50 PM79 °FBroken clouds.6 mph86%29.76 "Hg12 mi
6:50 PM81 °FBroken clouds.6 mph85%29.74 "Hg12 mi
5:50 PM83 °FBroken clouds.5 mph83%29.70 "Hg12 mi
4:52 PM86 °FBroken clouds.5 mph83%29.69 "Hg12 mi
3:50 PM85 °FBroken clouds.6 mph91%29.68 "Hg12 mi
2:51 PM80 °FBroken clouds.3 mph93%29.70 "Hg12 mi
1:50 PM78 °FCloudy.6 mph94%29.72 "Hg12 mi
1:01 PM77 °FSprinkles. Mostly cloudy.6 mph94%29.74 "Hg8 mi
12:50 PM78 °FThunderstorms. Mostly cloudy.10 mph92%29.75 "Hg6 mi
11:59 AM79 °FLots of rain. Mostly cloudy.6 mph94%29.76 "Hg4 mi
11:52 AM79 °FLots of rain. Mostly cloudy.8 mph91%29.76 "Hg2 mi
10:51 AM81 °FSprinkles. Mostly cloudy.6 mph91%29.76 "Hg10 mi
9:50 AM81 °FMostly cloudy.7 mph93%29.76 "Hg12 mi
8:50 AM80 °FSprinkles. Cloudy.8 mph91%29.76 "Hg10 mi
7:52 AM80 °FScattered showers. Cloudy.6 mph90%29.75 "Hg12 mi
6:53 AM80 °FOvercast.9 mph91%29.70 "Hg12 mi
5:52 AM79 °FOvercast.2 mph91%29.71 "Hg12 mi
4:51 AM78 °FOvercast.3 mph92%29.71 "Hg12 mi
3:53 AM78 °FOvercast.5 mph92%29.72 "Hg12 mi
2:50 AM77 °FOvercast.No wind93%29.73 "Hg12 mi
1:50 AM77 °FOvercast.5 mph93%29.75 "Hg12 mi
12:55 AM77 °FOvercast.5 mph93%29.76 "Hg12 mi
Weather by CustomWeather, © 2014

See weather overview